Location: ČR
(50.0000°N, 15.0000°E)
Time: 01:15:14
(UTC+00:00)

N. Korean satellite - Pass Details

Date: 27 September 2021
Orbit: 450 x 495 km, 97.3° (Epoch: 22 October)

Event Time Altitude Azimuth Distance (km) Brightness Sun altitude
Rises 04:07:46 0° 17° (NNE) 2,530 10.5 -8.2°
Reaches altitude 10° 04:09:51 10° 22° (NNE) 1,655 9.7 -7.9°
Maximum altitude 04:13:21 53° 100° (E) 601 7.5 -7.4°
Drops below altitude 10° 04:16:51 10° 178° (S) 1,665 9.3 -6.8°
Sets 04:18:58 0° 183° (S) 2,547 10.1 -6.5°
